Weather History for Orange, MA

Change the Weather History Date:

Monday, February 11, 2013

  Actual Average Record
Temperature  
Mean Temperature 23 °F -  
Max Temperature 37 °F 32 °F 51 °F (2009)
Min Temperature 9 °F 11 °F -11 °F (2014)
Degree Days  
Heating Degree Days 42    
Moisture  
Dew Point 24 °F    
Average Humidity 92    
Maximum Humidity 100    
Minimum Humidity 79    
Precipitation  
Precipitation 0.27 in - - ()
Sea Level Pressure  
Sea Level Pressure 29.95 in    
Wind  
Wind Speed 1 mph (NW)    
Max Wind Speed 10 mph    
Max Gust Speed 17 mph    
Visibility 3 miles    
Events Fog , Rain , Snow    
Averages and records for this station are not official NWS values.
T = Trace of Precipitation, MM = Missing Value Source: NWS Daily Summary

Daily Weather History Graph

Daily Weather History Graph

Search for Another Location

Airport:

Trip Planner

Search our weather history database for the weather conditions in past years. The results will help you decide how hot, cold, wet, or windy it might be!

Date:

Astronomy

Feb. 11, 2013 Rise Set
Actual Time 6:51 AM EST 5:16 PM EST
Civil Twilight 6:21 AM EST 5:45 PM EST
Nautical Twilight 5:48 AM EST 6:18 PM EST
Astronomical Twilight 5:16 AM EST 6:51 PM EST
Moon 7:10 AM EST (2/11) 7:13 PM EST (2/11)
Length of Visible Light 11h 23m
Length of Day
10h 25m
Waxing Crescent, 3% of the Moon is Illuminated
Feb 11
Waxing Crescent
Feb 17
First Quarter
Feb 25
Full
Mar 4
Last Quarter
Mar 11
New

Hourly Weather History & Observations

Time (EST) Temp. Windchill Dew Point Humidity Pressure Visibility Wind Dir Wind Speed Gust Speed Precip Events Conditions
12:52 AM 9.0 °F - 6.1 °F 88% 30.33 in 10.0 mi Calm Calm - N/A   Clear
1:52 AM 10.0 °F - 7.0 °F 87% 30.31 in 9.0 mi Calm Calm - N/A   Clear
2:52 AM 12.0 °F - 9.0 °F 88% 30.28 in 10.0 mi Calm Calm - N/A   Scattered Clouds
3:52 AM 12.9 °F - 10.0 °F 88% 30.25 in 10.0 mi Calm Calm - N/A   Scattered Clouds
4:52 AM 14.0 °F - 10.9 °F 88% 30.23 in 10.0 mi Calm Calm - N/A   Clear
5:52 AM 15.1 °F - 10.9 °F 84% 30.23 in 10.0 mi Calm Calm - N/A   Overcast
6:52 AM 17.1 °F - 12.0 °F 81% 30.19 in 3.0 mi Calm Calm - 0.00 in Snow Light Snow
6:57 AM 17.6 °F - 12.2 °F 79% 30.16 in 1.8 mi Calm Calm - 0.00 in Snow Light Snow
7:04 AM 17.6 °F - 12.2 °F 79% 30.16 in 1.0 mi Calm Calm - 0.01 in Snow Light Snow
7:14 AM 17.6 °F - 14.0 °F 86% 30.15 in 0.8 mi Calm Calm - 0.02 in Snow Light Snow
7:23 AM 17.6 °F - 14.0 °F 86% 30.15 in 1.2 mi Calm Calm - 0.02 in Snow Light Snow
7:50 AM 17.6 °F - 15.8 °F 93% 30.12 in 1.0 mi Calm Calm - 0.04 in Snow Light Snow
7:52 AM 18.0 °F - 16.0 °F 92% 30.16 in 1.2 mi Calm Calm - 0.04 in Snow Light Snow
8:01 AM 17.6 °F - 15.8 °F 93% 30.12 in 1.8 mi Calm Calm - 0.01 in Snow Light Snow
8:09 AM 19.4 °F - 15.8 °F 86% 30.11 in 2.5 mi Calm Calm - 0.03 in   Overcast
8:16 AM 19.4 °F - 15.8 °F 86% 30.09 in 1.2 mi Calm Calm - 0.03 in Snow Light Snow
8:21 AM 19.4 °F - 15.8 °F 86% 30.09 in 0.8 mi Calm Calm - 0.04 in Snow Light Snow
8:29 AM 19.4 °F - 17.6 °F 93% 30.09 in 1.2 mi Calm Calm - 0.04 in Snow Light Snow
8:32 AM 19.4 °F - 17.6 °F 93% 30.08 in 2.0 mi Calm Calm - 0.04 in Snow Light Snow
8:45 AM 19.4 °F 14.3 °F 17.6 °F 93% 30.08 in 3.0 mi West 3.5 mph - 0.04 in Snow Light Snow
8:52 AM 21.0 °F - 18.0 °F 88% 30.11 in 4.0 mi Calm Calm - 0.05 in   Overcast
9:12 AM 21.2 °F - 19.4 °F 93% 30.06 in 1.8 mi Calm Calm - 0.01 in Snow Light Snow
9:21 AM 21.2 °F - 19.4 °F 93% 30.06 in 3.0 mi Calm Calm - 0.02 in Snow Light Snow
9:29 AM 23.0 °F - 21.2 °F 93% 30.05 in 2.5 mi Calm Calm - 0.02 in   Overcast
9:40 AM 24.8 °F - 21.2 °F 86% 30.05 in 2.5 mi Calm Calm - 0.02 in Rain Light Freezing Rain
9:52 AM 24.1 °F - 21.9 °F 91% 30.07 in 2.0 mi Calm Calm - 0.03 in Snow Light Snow
9:57 AM 24.8 °F - 23.0 °F 93% 30.03 in 1.2 mi Calm Calm - 0.00 in Snow Light Snow
10:09 AM 24.8 °F - 23.0 °F 93% 30.02 in 2.0 mi Calm Calm - 0.02 in Snow Light Snow
10:19 AM 24.8 °F - 23.0 °F 93% 30.01 in 1.8 mi Calm Calm - 0.03 in Snow Light Snow
10:47 AM 26.6 °F - 26.6 °F 100% 29.97 in 2.0 mi Calm Calm - 0.04 in   Overcast
10:48 AM 28.0 °F - 26.1 °F 92% 30.01 in 2.0 mi Calm Calm - 0.04 in   Overcast
10:51 AM 28.4 °F - 26.6 °F 93% 29.97 in 1.8 mi Calm Calm - 0.00 in Rain Light Freezing Rain
11:12 AM 28.4 °F - 26.6 °F 93% 29.94 in 1.0 mi Calm Calm - 0.01 in Rain Light Freezing Rain
11:33 AM 28.4 °F - 28.4 °F 100% 29.92 in 1.5 mi Calm Calm - 0.03 in Rain Light Freezing Rain
11:41 AM 30.2 °F - 28.4 °F 93% 29.92 in 1.2 mi Calm Calm - 0.03 in Rain Light Freezing Rain
11:52 AM 30.0 °F - 28.9 °F 96% 29.94 in 1.2 mi Calm Calm - 0.05 in Rain Light Freezing Rain
11:58 AM 30.2 °F - 28.4 °F 93% 29.90 in 1.5 mi Calm Calm - 0.02 in Rain Light Freezing Rain
12:07 PM 30.2 °F - 30.2 °F 100% 29.89 in 1.5 mi Calm Calm - 0.03 in Rain Light Freezing Rain
12:17 PM 32.0 °F - 30.2 °F 93% 29.88 in 1.8 mi Calm Calm - 0.04 in   Overcast
12:27 PM 33.8 °F - 32.0 °F 93% 29.87 in 3.0 mi Calm Calm - 0.04 in   Overcast
12:40 PM 33.8 °F - 32.0 °F 93% 29.84 in 3.0 mi Calm Calm - 0.05 in Rain Light Rain
12:45 PM 33.8 °F - 32.0 °F 93% 29.84 in 1.8 mi Calm Calm - 0.05 in Rain Light Rain
12:52 PM 33.1 °F 28.7 °F 30.9 °F 92% 29.87 in 1.2 mi NW 4.6 mph - 0.05 in Rain Light Rain
1:04 PM 33.8 °F 30.8 °F 32.0 °F 93% 29.82 in 1.5 mi NNW 3.5 mph - 0.00 in   Overcast
1:15 PM 33.8 °F - 32.0 °F 93% 29.82 in 1.2 mi Calm Calm - 0.01 in Rain Light Rain
1:29 PM 33.8 °F - 32.0 °F 93% 29.80 in 1.0 mi Calm Calm - 0.01 in Rain Light Rain
1:39 PM 33.8 °F 29.6 °F 32.0 °F 93% 29.80 in 0.8 mi NNW 4.6 mph - 0.01 in   Overcast
1:52 PM 33.1 °F 30.0 °F 32.0 °F 96% 29.82 in 1.0 mi NE 3.5 mph - 0.01 in   Overcast
2:13 PM 33.8 °F - 32.0 °F 93% 29.78 in 0.8 mi Calm Calm - N/A   Overcast
2:52 PM 33.1 °F - 33.1 °F 100% 29.80 in 0.8 mi Calm Calm - N/A   Overcast
3:52 PM 34.0 °F - 33.1 °F 96% 29.75 in 0.2 mi Calm Calm - N/A Fog Fog
4:52 PM 33.1 °F - 33.1 °F 100% 29.72 in 0.2 mi Calm Calm - N/A Fog Fog
5:52 PM 33.1 °F - 33.1 °F 100% 29.71 in 0.2 mi Calm Calm - N/A Fog Fog
6:52 PM 33.1 °F - 33.1 °F 100% 29.69 in 0.2 mi Calm Calm - N/A Fog Fog
7:52 PM 33.1 °F - 32.0 °F 96% 29.66 in 0.2 mi Calm Calm - N/A Fog Fog
8:52 PM 33.1 °F - 33.1 °F 100% 29.67 in 0.5 mi Calm Calm - N/A Fog Fog
9:52 PM 34.0 °F - 33.1 °F 96% 29.65 in 0.5 mi Calm Calm - N/A Fog Fog
10:28 PM 33.8 °F - 33.8 °F 100% 29.63 in 0.5 mi Calm Calm - N/A Fog Fog
10:48 PM 33.8 °F 28.6 °F 33.8 °F 100% 29.65 in 1.2 mi WNW 5.8 mph - N/A   Overcast
10:52 PM 36.0 °F 28.5 °F 34.0 °F 93% 29.68 in 2.0 mi West 10.4 mph 17.3 mph N/A   Overcast
10:59 PM 37.4 °F 32.1 °F 35.6 °F 93% 29.65 in 6.0 mi WNW 6.9 mph 17.3 mph 0.00 in Rain Light Rain
11:06 PM 37.4 °F 31.4 °F 35.6 °F 93% 29.65 in 10.0 mi NW 8.1 mph - 0.00 in   Overcast
11:52 PM 36.0 °F 29.6 °F 33.1 °F 89% 29.66 in 10.0 mi WNW 8.1 mph - 0.00 in   Overcast